Home > Weather > Tilburg > Past weeks

Flag for Netherlands Past Weather in Tilburg, Netherlands — Yesterday and Last 2 Weeks

Now
61 °F

Partly cloudy.


Feels Like: 61 °F
Forecast: 52 / 74 °F
Wind: 3 mph from West

Location: Gilze-Rijen

Current Time: Aug 29, 2016 at 7:48:20 AM

Latest Report: Aug 29, 2016 at 7:25 AM


Visibility: 3 mi

Pressure: 30.04 "Hg

Humidity: 100%

Dew Point: 61 °F

Location of TilburgLocation

Past Weather in Tilburg — Graph

°F

Tilburg Temperature Yesterday

Maximum temperature yesterday: 75 °F (at 9:55 AM)
Minimum temperature yesterday: 63 °F (at 10:55 PM)
Average temperature yesterday: 71 °F

High & Low Weather Summary for the Past Weeks

 TemperatureHumidityPressure
High91 °F (Aug 25, 4:04 PM)100% (Aug 14, 6:03 AM)30.30 "Hg (Aug 14, 6:03 AM)
Low50 °F (Aug 18, 6:25 AM)33% (Aug 24, 4:25 PM)29.74 "Hg (Aug 19, 6:55 PM)
Average68 °F73%30.02 "Hg
* Reported Aug 14 6:03 AM — Aug 29 6:25 AM, Tilburg, Weather by CustomWeather, © 2016

Note: Actual official high and low records may vary slightly from our data, if they occured in-between our weather recording intervals... More about our weather records

Advertising

Tilburg Weather History for the Previous 24 Hours

Scroll right to see more
 ConditionsComfort  
Time TempWeatherWind HumidityBarometerVisibility
6:25 AM
Mon, Aug 29
61 °FPartly cloudy.6 mph100%30.01 "Hg3 mi
5:55 AM61 °FPartly cloudy.6 mph94%30.01 "Hg2 mi
5:25 AM61 °FPartly cloudy.5 mph94%30.01 "HgN/A
4:55 AM61 °FOvercast.5 mph94%30.01 "HgN/A
4:25 AM61 °FOvercast.5 mph88%30.01 "HgN/A
3:55 AM61 °FCool.6 mph88%29.98 "HgN/A
3:25 AM61 °FPassing clouds.6 mph88%29.98 "HgN/A
2:55 AM61 °FCool.6 mph88%29.98 "HgN/A
2:25 AM61 °FPassing clouds.7 mph88%29.98 "HgN/A
1:55 AM61 °FCool.6 mph88%29.98 "HgN/A
1:25 AM61 °FPassing clouds.6 mph88%29.98 "HgN/A
12:55 AM61 °FCool.5 mph83%29.98 "HgN/A
12:25 AM63 °FMild.6 mph77%30.01 "HgN/A
11:55 PM
Sun, Aug 28
63 °FMild.6 mph77%30.01 "HgN/A
11:25 PM63 °FMild.5 mph77%29.98 "HgN/A
10:55 PM63 °FMild.5 mph77%30.01 "HgN/A
10:25 PM64 °FMild.5 mph73%30.01 "HgN/A
9:55 PM64 °FMild.5 mph73%29.98 "HgN/A
9:25 PM66 °FMild.7 mph68%29.98 "HgN/A
8:55 PM68 °FMild.7 mph69%29.98 "HgN/A
8:25 PM68 °FMild.8 mph69%29.98 "HgN/A
7:55 PM70 °FPassing clouds.8 mph64%29.98 "HgN/A
7:25 PM72 °FOvercast.9 mph65%29.95 "HgN/A
6:55 PM72 °FOvercast.12 mph61%29.95 "HgN/A
6:25 PM72 °FOvercast.12 mph65%29.95 "HgN/A
5:55 PM73 °FPartly sunny.12 mph61%29.95 "HgN/A
5:25 PM73 °FMore clouds than sun.12 mph53%29.95 "HgN/A
4:55 PM73 °FBroken clouds.13 mph57%29.95 "HgN/A
4:25 PM75 °FBroken clouds.10 mph57%29.95 "HgN/A
3:55 PM75 °FBroken clouds.12 mph57%29.95 "HgN/A
3:25 PM73 °FBroken clouds.13 mph61%29.95 "HgN/A
2:55 PM73 °FPartly sunny.12 mph61%29.95 "HgN/A
2:25 PM73 °FBroken clouds.13 mph61%29.95 "HgN/A
1:55 PM75 °FBroken clouds.14 mph57%29.92 "HgN/A
1:25 PM73 °FOvercast.13 mph61%29.92 "HgN/A
12:55 PM73 °FOvercast.12 mph61%29.92 "HgN/A
12:25 PM73 °FOvercast.9 mph65%29.92 "HgN/A
11:55 AM73 °FMostly cloudy.13 mph74%29.92 "HgN/A
11:25 AM73 °FMostly cloudy.14 mph74%29.89 "HgN/A
10:55 AM75 °FScattered clouds.12 mph74%29.89 "HgN/A
10:25 AM75 °FMild.10 mph74%29.86 "HgN/A
9:55 AM75 °FPassing clouds.7 mph74%29.86 "HgN/A
9:25 AM73 °FMostly cloudy.6 mph78%29.86 "HgN/A
8:55 AM73 °FOvercast.5 mph78%29.86 "HgN/A
8:25 AM72 °FOvercast.8 mph83%29.86 "HgN/A
7:55 AM72 °FMostly cloudy.8 mph83%29.83 "HgN/A
7:25 AM70 °FMostly cloudy.8 mph88%29.83 "HgN/A
7:01 AM68 °FFog.7 mph94%29.83 "Hg5 mi
Weather by CustomWeather, © 2016

See weather overviewHow to use our weather pages